RH
32 28 31 83 83 63 66 86 63 53 46 49 53 43 44 65 100 97 95 69 95 80 59 62 46 29 58 54 21 12 10 9 8 8 9 8 8 8 7 6 6 6 7 9 11 11 12
34 29 33 80 96 82 91 72 88 87 74 44 72 67 79 50 90 84 88 76 88 77 64 49 34 29 56 60 25 15 10 9 8 8 8 8 9 8 7 7 7 8 9 10 11 12 16
31 32 43 51 100 99 95 100 99 98 100 99 96 98 100 100 92 91 72 74 73 70 64 63 34 29 53 58 30 20 14 10 8 7 7 7 7 6 7 7 9 10 12 14 20 29 31
23 36 41 50 84 100 98 95 99 97 88 77 92 95 100 100 100 65 65 77 71 70 93 71 44 46 41 56 44 22 17 14 10 7 8 7 8 9 11 13 14 18 24 28 41 49 52
18 31 42 52 76 96 100 95 99 88 100 86 100 100 99 100 92 73 74 69 69 80 94 58 40 46 50 49 51 34 22 17 14 12 11 11 12 16 30 38 34 34 30 38 46 48 46
14 17 21 50 55 83 97 100 99 100 100 92 100 100 98 100 92 73 63 64 74 96 75 46 41 43 45 50 50 50 37 27 19 16 16 22 30 40 45 45 43 44 42 32 37 40 33
11 13 15 17 39 78 82 100 100 100 99 92 96 93 92 98 82 66 67 77 84 77 73 59 46 49 42 48 47 49 48 44 41 41 39 41 41 45 46 45 44 46 43 42 40 34 26
10 11 13 14 25 57 71 77 78 84 78 79 81 75 72 71 71 70 84 85 77 66 60 54 44 39 38 39 43 45 46 47 48 45 44 40 37 39 42 38 42 43 40 34 30 19 17
8 10 11 14 13 31 56 53 33 27 33 32 46 57 69 72 74 93 94 80 68 66 63 49 44 38 32 31 28 32 36 36 37 36 36 32 30 26 31 38 36 30 21 17 23 25 18
20 8 10 11 14 13 24 48 35 21 19 17 24 33 53 66 69 63 63 61 48 49 49 37 38 38 28 25 23 18 17 20 20 22 22 24 29 30 27 20 16 17 26 25 14 14 11
76 40 8 9 10 13 13 22 37 23 14 13 13 20 33 46 40 49 55 56 52 54 53 46 43 45 42 36 30 29 26 24 25 26 25 21 19 17 21 26 25 20 16 17 11 7 9
7 44 65 8 9 9 11 14 22 28 33 18 11 12 13 15 20 24 27 25 29 32 34 42 43 41 41 38 32 28 27 25 24 23 24 24 27 26 21 16 18 16 10 8 12 11 8
10 8 17 79 14 8 9 9 14 14 24 36 29 18 14 11 10 10 14 16 17 21 22 24 28 29 29 29 31 29 26 26 25 24 21 17 14 17 20 11 9 9 12 12 12 8 8
16 16 9 9 50 52 8 9 7 10 14 16 25 34 32 19 13 12 10 9 10 14 12 13 13 14 14 14 14 14 15 15 15 14 20 22 15 10 12 12 11 10 9 9 8 7 8
9 16 28 26 10 19 66 13 8 7 7 12 13 14 22 30 29 20 17 13 11 11 10 9 10 11 10 10 10 11 15 19 20 20 18 11 12 14 11 9 8 8 7 7 7 10 13
7 9 16 31 40 22 12 48 39 7 8 6 8 13 14 12 16 26 31 30 29 24 18 15 17 17 19 23 24 22 19 13 10 12 13 14 12 9 6 6 6 7 7 10 15 17 22
6 7 9 15 30 46 40 12 22 68 10 7 7 6 8 12 14 12 13 17 22 22 27 31 25 17 14 11 11 11 13 13 12 12 9 7 7 8 8 8 8 10 13 16 19 21 23
6 7 7 9 13 18 40 50 26 14 49 44 6 6 6 6 7 12 13 13 11 12 12 12 12 12 13 13 13 12 11 9 7 7 8 10 10 11 13 14 16 16 17 18 20 22 24
6 7 8 8 11 14 26 29 54 47 17 26 59 7 6 6 6 6 6 8 9 10 10 10 10 9 8 7 7 7 8 9 10 11 13 14 15 16 17 17 18 20 21 21 20 18 18
8 8 8 9 12 14 16 38 46 55 56 27 21 58 18 5 6 6 7 7 7 7 7 7 7 8 8 8 9 9 10 11 13 14 14 15 16 16 16 17 18 18 18 19 17 16 16
10 10 10 11 14 19 17 27 70 58 60 55 43 19 54 47 6 5 5 6 6 7 7 7 7 7 7 7 7 7 7 8 9 9 10 11 12 12 13 13 13 13 15 15 13 15 9
15 18 18 20 18 27 51 34 68 72 60 55 52 45 18 23 68 40 6 5 5 4 4 5 5 5 5 6 6 6 6 6 7 7 8 9 10 11 12 13 13 12 12 11 11 11 10
18 25 28 46 63 62 79 58 81 72 65 53 52 53 37 32 22 30 82 75 23 8 5 5 5 5 5 5 5 6 6 6 7 9 11 12 13 12 11 11 10 11 16 30 46 51 63
22 38 49 67 76 76 81 75 78 70 69 65 53 49 54 61 47 23 20 37 80 93 74 38 16 9 8 7 7 9 11 12 13 13 12 11 12 11 12 14 28 53 70 82 85 90 95
67 68 74 77 71 73 77 69 71 65 67 72 69 57 66 72 65 50 25 21 29 49 76 96 97 96 96 93 84 71 67 57 59 56 66 73 64 56 64 64 66 78 90 94 88 84 85
64 70 75 67 72 66 64 68 71 70 67 73 78 79 69 64 71 72 66 55 38 35 42 53 68 82 94 96 96 96 96 97 97 97 97 97 97 96 96 93 94 94 96 94 91 86 86
66 60 61 67 60 63 65 64 64 60 66 70 66 75 75 64 60 60 65 72 75 71 64 63 68 72 73 76 84 89 91 97 94 94 97 97 95 96 100 93 90 99 98 94 95 88 83
57 51 48 46 52 60 59 60 61 61 58 59 69 67 62 61 64 68 68 67 69 71 72 75 88 90 86 85 82 84 84 90 91 91 94 91 93 92 89 96 90 98 91 92 90 87 82
62 60 58 55 48 43 40 40 44 48 56 54 56 62 62 65 57 50 56 64 68 69 70 68 70 69 72 79 80 80 82 79 79 84 89 89 94 95 100 94 93 92 80 80 77 71 70
Wind_Speed
54 55 56 42 46 40 39 45 36 24 22 20 18 17 19 28 32 36 35 33 36 46 51 50 49 48 49 48 45 44 44 43 40 38 34 34 32 31 28 28 27 25 27 27 28 28 30
52 53 52 43 43 39 37 36 37 35 29 17 21 25 30 28 29 34 34 36 37 42 47 45 47 44 43 44 41 40 39 39 38 36 31 31 28 29 27 27 27 27 28 29 30 31 33
49 49 47 49 42 38 36 33 30 33 28 22 24 12 20 15 21 44 36 39 41 40 41 40 42 41 39 38 37 35 35 35 35 34 30 29 27 28 27 27 26 27 27 28 30 34 35
49 48 45 51 37 38 34 32 29 28 22 23 19 28 28 26 51 41 41 41 40 40 40 40 39 37 36 36 33 31 30 30 31 31 30 29 28 27 26 25 25 25 28 31 32 34 33
49 46 43 48 47 33 29 34 32 28 28 26 27 36 37 46 44 44 43 40 40 40 40 39 37 34 32 32 31 30 29 29 28 28 27 27 27 25 23 25 27 30 32 33 35 34 34
47 47 44 44 49 40 30 29 27 26 26 26 32 36 39 39 41 42 40 39 39 37 37 36 34 32 30 27 28 27 27 27 27 27 26 24 25 25 28 29 31 32 35 44 45 35 34
46 48 46 44 46 46 36 28 28 24 28 26 34 36 34 37 37 37 36 36 35 34 35 34 33 30 28 27 26 27 27 26 25 25 25 26 26 27 31 32 31 32 33 36 37 38 37
43 46 47 45 43 45 40 33 34 30 28 28 29 31 30 33 32 33 32 30 29 31 32 30 30 28 26 25 25 25 26 26 27 29 29 30 30 34 36 31 28 31 32 34 35 36 39
39 42 44 45 42 42 42 36 35 30 28 27 25 25 26 25 26 26 27 27 27 27 25 27 27 25 25 24 23 23 22 23 24 24 26 28 29 29 28 26 28 29 31 31 33 33 35
36 38 39 42 42 41 41 37 33 28 24 22 20 17 20 23 23 24 23 23 24 24 22 21 21 20 20 21 21 20 21 21 21 22 23 24 24 23 23 25 26 28 31 31 29 28 29
38 34 36 37 38 38 37 36 31 25 19 15 14 15 15 19 21 19 20 19 20 19 18 19 17 17 15 14 16 16 16 17 17 17 19 19 19 20 22 24 27 27 25 24 24 19 14
35 36 33 33 34 34 34 32 30 28 20 17 13 12 12 13 13 14 15 15 16 12 13 15 14 13 13 13 14 14 13 15 16 18 19 20 22 23 24 23 23 23 22 15 10 10 12
34 34 33 33 29 30 29 29 27 25 24 20 14 11 10 10 10 9 10 11 11 9 9 10 10 10 11 10 12 12 12 14 16 19 20 20 21 20 19 19 14 9 9 10 12 13 14
31 32 32 30 31 27 25 24 24 23 21 19 17 15 11 8 10 8 8 9 8 8 6 6 8 7 9 10 12 13 15 16 18 18 18 16 16 15 10 8 8 9 10 12 13 11 11
27 27 29 30 28 27 25 21 20 19 18 16 16 13 11 9 7 6 8 9 10 11 10 10 9 11 12 13 15 16 16 15 15 16 16 12 10 8 10 10 12 12 11 10 9 12 11
23 25 24 26 27 26 22 23 17 16 15 14 12 11 11 8 6 5 5 5 6 7 9 12 11 12 13 12 12 12 12 11 8 8 8 9 10 11 11 11 9 9 9 11 12 11 10
21 23 23 21 22 23 22 19 18 15 11 10 8 8 7 7 8 8 6 6 6 7 7 8 8 8 9 8 8 8 8 8 8 9 9 8 8 8 9 10 11 12 13 13 13 14 14
21 21 22 22 20 20 20 19 16 14 13 8 6 4 3 4 4 5 6 7 8 8 8 8 8 8 8 8 8 8 7 7 8 8 9 11 11 12 12 13 13 14 16 17 17 16 17
24 24 24 23 23 21 20 19 19 15 13 11 9 6 5 3 3 3 5 6 7 8 9 9 9 8 8 8 8 8 10 11 12 13 13 14 14 15 15 15 16 17 19 21 22 22 20
26 27 27 27 25 25 23 22 21 19 17 14 13 11 12 11 11 10 9 9 9 10 10 11 12 12 12 12 12 12 13 13 15 16 17 18 17 19 19 20 22 22 24 26 28 25 27
30 30 32 32 32 29 27 24 25 20 17 18 17 16 14 17 17 17 17 16 16 15 15 15 15 16 16 16 17 18 18 19 20 21 22 23 22 25 25 27 28 26 27 30 29 30 33
33 34 35 35 35 35 33 28 27 21 17 17 19 19 19 18 20 23 23 23 23 23 23 23 23 23 23 23 23 24 25 24 24 27 27 27 28 29 27 31 34 32 32 34 36 36 35
36 36 38 36 39 40 34 29 25 20 16 16 18 18 19 21 23 23 25 28 29 29 29 29 29 29 30 30 30 30 30 31 31 31 32 32 34 36 32 36 39 37 35 36 35 36 37
38 37 38 37 32 32 29 27 22 17 16 15 15 18 19 21 21 25 26 24 26 29 32 34 35 35 35 36 36 36 36 36 36 37 38 38 40 42 40 39 39 36 35 37 40 39 40
38 33 31 32 27 29 26 23 21 19 18 15 15 15 16 18 18 20 25 27 27 27 27 28 31 34 35 36 38 38 38 38 38 38 37 39 41 42 42 41 41 41 40 40 40 42 40
33 32 30 28 32 27 27 30 30 25 23 20 17 12 11 13 16 17 20 25 28 29 28 29 30 31 32 32 33 33 34 34 35 34 33 35 38 40 42 45 44 39 41 44 46 49 48
37 35 35 34 33 37 35 35 36 35 31 27 23 20 19 17 18 16 17 18 21 25 28 29 31 32 35 36 36 35 35 35 36 35 34 36 38 39 40 46 43 41 43 48 49 51 51
42 40 40 38 38 40 42 41 42 43 40 37 32 29 28 27 28 27 25 24 23 25 26 24 28 31 34 35 37 39 40 39 38 40 38 41 45 45 46 47 49 47 49 51 54 55 56
50 48 48 48 46 47 47 47 46 49 45 40 41 40 36 35 35 35 35 34 32 33 33 34 35 36 36 36 37 40 40 40 40 41 39 42 41 44 43 45 47 52 55 59 62 63 62
Wind_Direction
21 25 25 34 44 47 47 52 61 84 104 126 140 150 154 157 146 146 155 164 164 169 169 170 180 185 189 190 191 192 193 197 200 205 206 212 214 220 224 232 238 243 250 256 261 266 274
14 25 27 34 44 49 52 55 59 70 90 117 135 146 135 147 160 147 151 153 156 163 162 164 173 181 186 191 191 192 195 196 201 206 209 215 218 226 230 237 244 249 255 260 266 273 278
15 29 31 35 38 48 47 54 60 68 76 95 126 83 99 134 171 141 137 143 149 156 150 160 166 174 178 189 193 193 196 198 203 207 213 220 224 231 236 241 249 258 266 271 274 278 278
29 34 32 36 39 39 47 51 72 70 68 75 59 96 111 111 125 128 131 137 145 143 149 154 159 166 179 183 190 196 198 199 204 208 215 223 229 235 241 246 251 256 264 270 279 283 283
33 34 34 33 39 41 47 48 67 63 75 76 98 114 104 120 121 127 130 139 140 143 150 149 153 159 168 182 188 193 201 205 207 211 217 225 233 236 243 253 257 263 269 276 278 280 279
35 35 38 36 38 43 55 56 50 69 83 86 99 106 112 116 123 125 133 137 139 147 146 147 152 159 168 176 188 195 201 208 212 217 222 225 238 249 262 266 270 272 271 277 273 274 274
36 38 38 39 42 42 50 64 69 76 90 89 101 112 115 117 122 130 137 140 143 146 146 150 152 157 165 172 185 196 204 209 214 220 227 241 247 260 268 266 267 268 265 265 272 275 278
35 38 40 42 45 47 48 68 78 79 81 96 101 109 115 122 130 136 139 141 146 145 148 152 153 157 167 175 185 196 205 215 225 233 242 246 248 251 255 257 262 265 268 270 274 283 283
37 37 40 43 46 50 53 60 73 74 74 84 108 115 122 130 138 138 140 141 148 149 153 155 157 164 171 177 185 193 203 215 222 228 233 238 241 245 252 259 263 266 274 278 282 286 289
37 38 39 43 45 47 54 58 75 82 79 84 99 108 131 137 134 134 137 142 146 146 149 154 161 168 175 181 187 193 204 214 221 228 234 239 244 250 257 263 268 275 278 283 284 286 289
37 38 38 39 46 49 50 58 62 80 87 84 103 113 128 127 129 135 141 148 149 150 152 160 165 173 182 187 196 200 208 218 227 236 242 247 253 259 266 272 274 275 276 280 287 291 290
36 38 39 39 40 46 53 52 59 63 73 98 117 114 113 120 125 134 142 146 146 144 153 164 175 182 188 195 202 210 219 228 238 247 253 258 265 269 271 273 275 279 283 281 276 288 291
28 34 38 38 39 40 46 52 54 59 64 70 89 120 131 137 141 146 155 151 152 148 159 170 179 189 200 208 220 231 238 244 249 253 255 257 260 263 268 275 277 266 257 269 280 289 292
32 29 32 37 35 37 37 44 51 53 58 67 71 74 87 134 158 175 184 185 189 200 190 185 196 203 213 221 227 232 234 238 241 248 251 253 263 260 244 246 255 263 266 274 280 285 297
23 30 26 26 33 30 31 34 38 49 51 55 67 71 71 80 93 156 174 181 187 196 201 201 204 210 210 217 230 235 240 242 245 250 252 252 233 235 252 261 266 265 267 267 271 285 295
10 17 25 21 19 22 26 25 26 29 42 50 54 63 74 78 92 113 133 151 173 191 210 213 219 220 225 227 229 232 236 237 224 213 211 228 246 254 258 258 254 252 257 271 278 284 282
353 360 6 15 12 11 12 14 16 15 16 24 46 56 62 80 92 105 134 156 169 173 176 188 202 216 219 219 210 198 196 202 210 234 239 239 243 250 253 254 259 264 270 275 278 283 286
335 341 346 351 358 357 1 357 354 354 360 345 348 7 50 76 96 121 126 128 133 142 153 166 170 172 182 190 201 208 214 225 232 238 246 253 254 255 254 259 262 267 269 274 278 281 283
320 325 330 335 338 343 345 344 344 331 325 327 310 283 280 247 201 176 163 164 167 170 173 179 184 189 195 205 214 223 230 237 245 252 256 258 262 263 263 265 267 271 275 278 279 280 284
310 314 317 321 325 329 333 334 330 326 313 296 290 283 258 245 239 230 223 215 207 202 203 205 208 212 218 225 231 238 246 252 257 261 263 265 267 268 271 269 269 272 277 279 281 284 281
302 306 310 313 314 317 319 323 326 314 305 297 285 267 262 253 240 239 238 235 234 235 235 235 238 240 243 246 248 250 250 253 255 260 263 264 265 267 270 272 272 270 273 277 278 282 283
295 300 304 306 307 308 310 311 318 314 302 290 289 277 261 257 256 249 240 241 243 242 242 245 247 249 251 255 257 258 260 260 262 267 267 268 268 267 269 274 277 278 281 281 283 285 284
292 298 302 306 306 307 306 304 312 311 302 291 291 291 271 269 262 255 255 253 250 248 247 248 250 253 255 256 258 260 263 266 268 269 271 272 273 273 272 271 273 277 279 279 280 280 282
290 297 301 304 307 303 305 305 309 314 310 297 289 301 284 278 271 265 261 259 259 257 257 257 257 257 259 261 262 265 267 269 271 273 275 275 277 278 278 278 279 280 280 281 282 283 282
286 290 298 304 302 308 306 303 308 311 320 315 304 293 292 285 281 271 266 266 266 267 269 271 267 263 264 266 267 268 269 272 272 274 278 279 279 279 281 279 278 282 284 285 283 280 282
281 285 289 291 292 298 306 304 301 300 302 304 309 293 292 292 291 289 282 274 272 271 272 274 279 282 282 280 277 273 274 273 274 275 278 280 282 283 284 281 282 282 283 282 281 279 281
281 283 287 285 282 287 289 293 300 300 295 291 293 293 290 287 285 286 289 289 283 279 276 277 278 278 280 281 282 283 282 284 285 284 284 284 284 285 286 285 287 289 288 285 285 283 283
275 277 280 285 286 284 284 288 292 295 294 289 285 287 288 292 290 285 283 281 278 277 278 278 276 278 277 278 279 280 281 281 280 281 284 283 283 284 285 288 292 291 285 283 284 281 279
269 271 277 280 279 280 282 284 285 286 288 283 281 283 283 282 280 280 280 280 278 278 277 277 275 272 273 274 278 279 279 281 282 283 283 282 283 284 286 289 293 289 288 288 286 285 287